Hillsdale, MI

3:10 AM EST on December 08, 2016 (GMT -0500)
Hillsdale Municipal

Weather History for KJYM - August, 2013

Change the Weather History Date:

Thursday, August 22, 2013

  Actual Average Record
Temperature  
Mean Temperature 72 °F -  
Max Temperature 79 °F 78 °F 91 °F (1959)
Min Temperature 64 °F 54 °F 41 °F (1969)
Cooling Degree Days 6    
Growing Degree Days 22 (Base 50)    
Moisture  
Dew Point 69 °F    
Average Humidity 93    
Maximum Humidity 100    
Minimum Humidity 72    
Precipitation  
Precipitation 0.00 in - - ()
Sea Level Pressure  
Sea Level Pressure 30.07 in    
Wind  
Wind Speed 3 mph (WNW)    
Max Wind Speed 14 mph    
Max Gust Speed 23 mph    
Visibility 7 miles    
Events Fog , Rain    
Averages and records for this station are not official NWS values.
T = Trace of Precipitation, MM = Missing Value Source: NWS Daily Summary

Daily Weather History Graph

Daily Weather History Graph

Search for Another Location

Airport or City:

Trip Planner

Search our weather history database for the weather conditions in past years. The results will help you decide how hot, cold, wet, or windy it might be!

Date:

Astronomy

Aug. 22, 2013 Rise Set
Actual Time 6:53 AM EDT 8:27 PM EDT
Civil Twilight 6:24 AM EDT 8:56 PM EDT
Nautical Twilight 5:48 AM EDT 9:32 PM EDT
Astronomical Twilight 5:11 AM EDT 10:09 PM EDT
Moon 9:07 PM EDT (8/22) 8:44 AM EDT (8/22)
Length of Visible Light 14h 32m
Length of Day
13h 33m
Waning Gibbous, 97% of the Moon is Illuminated
Aug 22
Waning Gibbous
Aug 28
Last Quarter
Sep 5
New
Sep 12
First Quarter
Sep 19
Full

Hourly Weather History & Observations

Time (EDT) Temp. Dew Point Humidity Pressure Visibility Wind Dir Wind Speed Gust Speed Precip Events Conditions
12:14 AM 71.4 °F 69.1 °F 92% 30.06 in 7.0 mi South 3.5 mph - N/A   Clear
12:34 AM 71.6 °F 69.1 °F 92% 30.07 in 7.0 mi SSW 3.5 mph - N/A   Clear
12:55 AM 72.0 °F 68.5 °F 89% 30.07 in 10.0 mi South 3.5 mph - N/A   Clear
1:14 AM 70.9 °F 68.7 °F 93% 30.08 in 7.0 mi Calm Calm - N/A   Scattered Clouds
1:34 AM 70.9 °F 68.7 °F 93% 30.07 in 7.0 mi Calm Calm - N/A   Scattered Clouds
1:55 AM 71.2 °F 68.5 °F 91% 30.08 in 10.0 mi Calm Calm - N/A   Scattered Clouds
2:14 AM 72.0 °F 68.4 °F 88% 30.08 in 10.0 mi WSW 4.6 mph - N/A   Overcast
2:35 AM 73.8 °F 68.0 °F 82% 30.10 in 10.0 mi WNW 8.1 mph 19.6 mph N/A   Overcast
2:55 AM 73.6 °F 67.8 °F 82% 30.08 in 10.0 mi WNW 6.9 mph - N/A   Overcast
3:14 AM 72.1 °F 68.9 °F 89% 30.09 in 10.0 mi West 5.8 mph - N/A Rain Light Rain
3:35 AM 70.2 °F 69.1 °F 96% 30.08 in 7.0 mi West 5.8 mph - N/A Rain Light Rain
3:55 AM 69.6 °F 68.9 °F 98% 30.05 in 7.0 mi SW 5.8 mph - N/A Rain Light Rain
4:14 AM 69.4 °F 69.1 °F 99% 30.00 in 5.0 mi SSW 11.5 mph - N/A Rain Light Rain
4:35 AM 69.3 °F 68.9 °F 99% 30.02 in 7.0 mi Calm Calm - N/A   Scattered Clouds
4:54 AM 68.5 °F 68.2 °F 99% 30.03 in 5.0 mi Calm Calm - N/A   Clear
5:14 AM 68.4 °F 68.2 °F 99% 30.02 in 5.0 mi Calm Calm - N/A   Clear
5:35 AM 66.7 °F 66.7 °F 100% 30.02 in 2.5 mi Calm Calm - N/A   Clear
5:54 AM 66.0 °F 66.0 °F 100% 30.03 in 1.8 mi Calm Calm - N/A   Mist
6:14 AM 64.6 °F 64.6 °F 100% 30.04 in 0.2 mi Calm Calm - N/A Fog Fog
6:35 AM 64.4 °F 64.4 °F 100% 30.05 in 0.2 mi Calm Calm - N/A Fog Fog
6:54 AM 64.6 °F 64.6 °F 100% 30.06 in 0.2 mi Calm Calm - N/A Fog Fog
7:14 AM 64.2 °F 64.2 °F 100% 30.06 in 0.2 mi Calm Calm - N/A Fog Fog
7:35 AM 65.1 °F 65.1 °F 100% 30.06 in 0.5 mi Calm Calm - N/A Fog Fog
7:54 AM 65.7 °F 65.7 °F 100% 30.07 in 2.0 mi Calm Calm - N/A   Mostly Cloudy
8:14 AM 67.3 °F 67.3 °F 100% 30.08 in 2.5 mi Calm Calm - N/A   Clear
8:34 AM 68.4 °F 68.4 °F 100% 30.08 in 2.0 mi Calm Calm - N/A   Clear
8:54 AM 69.3 °F 69.3 °F 100% 30.08 in 4.0 mi Calm Calm - N/A   Clear
9:15 AM 70.2 °F 70.0 °F 99% 30.08 in 7.0 mi Calm Calm - N/A   Clear
9:34 AM 71.2 °F 70.9 °F 99% 30.08 in 10.0 mi Calm Calm - N/A   Clear
9:54 AM 72.9 °F 70.2 °F 91% 30.07 in 10.0 mi West 3.5 mph - N/A   Scattered Clouds
10:15 AM 74.1 °F 70.3 °F 88% 30.08 in 10.0 mi WNW 6.9 mph - N/A   Scattered Clouds
10:34 AM 75.7 °F 70.7 °F 84% 30.08 in 10.0 mi WNW 9.2 mph - N/A   Scattered Clouds
10:55 AM 76.6 °F 70.7 °F 82% 30.09 in 10.0 mi NW 10.4 mph - N/A   Mostly Cloudy
11:14 AM 76.6 °F 71.1 °F 83% 30.10 in 10.0 mi NW 6.9 mph - N/A   Overcast
11:34 AM 76.6 °F 71.1 °F 83% 30.10 in 10.0 mi NW 6.9 mph - N/A   Mostly Cloudy
11:55 AM 77.4 °F 71.1 °F 81% 30.09 in 10.0 mi NNW 9.2 mph - N/A   Mostly Cloudy
12:14 PM 78.6 °F 71.1 °F 78% 30.09 in 10.0 mi NNW 6.9 mph - N/A   Mostly Cloudy
12:35 PM 79.3 °F 70.0 °F 73% 30.08 in 10.0 mi NW 5.8 mph - N/A   Scattered Clouds
12:55 PM 79.2 °F 69.3 °F 72% 30.09 in 10.0 mi NW 6.9 mph - N/A   Clear
1:14 PM 77.7 °F 69.1 °F 75% 30.09 in 10.0 mi WNW 8.1 mph - N/A   Mostly Cloudy
1:35 PM 77.5 °F 69.4 °F 76% 30.09 in 10.0 mi WNW 5.8 mph - N/A   Mostly Cloudy
1:54 PM 77.5 °F 69.4 °F 76% 30.09 in 10.0 mi WNW 8.1 mph - N/A   Overcast
2:14 PM 77.2 °F 70.5 °F 80% 30.09 in 10.0 mi NW 5.8 mph - N/A   Overcast
2:35 PM 77.4 °F 70.7 °F 80% 30.09 in 10.0 mi WNW 5.8 mph - N/A   Mostly Cloudy
2:54 PM 77.4 °F 70.9 °F 80% 30.08 in 10.0 mi NW 3.5 mph - N/A   Mostly Cloudy
3:14 PM 77.2 °F 70.5 °F 80% 30.08 in 10.0 mi WNW 3.5 mph - N/A   Mostly Cloudy
3:35 PM 76.5 °F 71.2 °F 84% 30.06 in 10.0 mi Calm Calm - N/A   Overcast
3:54 PM 75.7 °F 71.2 °F 86% 30.07 in 10.0 mi Calm Calm - N/A   Mostly Cloudy
4:14 PM 75.4 °F 71.2 °F 87% 30.07 in 7.0 mi NW 4.6 mph - N/A   Mostly Cloudy
4:35 PM 73.8 °F 71.6 °F 93% 30.08 in 4.0 mi West 13.8 mph 23.0 mph N/A Rain Rain
4:54 PM 69.6 °F 68.7 °F 97% 30.08 in 5.0 mi WNW 5.8 mph - N/A Rain Rain
5:15 PM 68.2 °F 67.8 °F 99% 30.09 in 7.0 mi NW 6.9 mph - N/A Rain Light Rain
5:34 PM 67.6 °F 67.1 °F 98% 30.09 in 7.0 mi NNW 12.7 mph 16.1 mph N/A Rain Rain
5:55 PM 67.8 °F 67.6 °F 99% 30.09 in 5.0 mi NW 8.1 mph - N/A Rain Rain
6:14 PM 67.8 °F 67.8 °F 100% 30.07 in 5.0 mi Calm Calm - N/A Rain Rain
6:34 PM 67.8 °F 67.8 °F 100% 30.07 in 5.0 mi Calm Calm - N/A Rain Rain
6:55 PM 68.4 °F 68.4 °F 100% 30.06 in 7.0 mi Calm Calm - N/A Rain Light Rain
7:14 PM 68.4 °F 68.4 °F 100% 30.04 in 7.0 mi Calm Calm - N/A Rain Light Rain
7:35 PM 68.4 °F 68.4 °F 100% 30.04 in 10.0 mi Calm Calm - N/A   Light Drizzle
7:55 PM 67.8 °F 67.8 °F 100% 30.04 in 7.0 mi North 5.8 mph - N/A   Scattered Clouds
8:14 PM 67.6 °F 67.6 °F 100% 30.04 in 10.0 mi Calm Calm - N/A   Scattered Clouds
8:35 PM 67.6 °F 67.5 °F 99% 30.03 in 10.0 mi ENE 3.5 mph - N/A   Mostly Cloudy
8:54 PM 67.8 °F 67.3 °F 98% 30.03 in 10.0 mi NE 4.6 mph - N/A   Mostly Cloudy
9:14 PM 68.4 °F 67.6 °F 98% 30.04 in 10.0 mi NNE 5.8 mph - N/A   Scattered Clouds
9:35 PM 68.4 °F 67.6 °F 98% 30.04 in 7.0 mi North 5.8 mph - N/A   Mostly Cloudy
9:54 PM 68.4 °F 67.8 °F 98% 30.04 in 7.0 mi NNE 5.8 mph - N/A   Overcast
10:14 PM 68.5 °F 68.0 °F 98% 30.05 in 7.0 mi Calm Calm - N/A   Overcast
10:35 PM 68.4 °F 68.2 °F 99% 30.07 in 4.0 mi Calm Calm - N/A   Overcast
10:54 PM 68.4 °F 68.4 °F 100% 30.07 in 4.0 mi West 4.6 mph - N/A   Overcast
11:15 PM 68.4 °F 68.4 °F 100% 30.09 in 3.0 mi WNW 3.5 mph - N/A   Overcast
11:35 PM 68.4 °F 68.4 °F 100% 30.09 in 3.0 mi Calm Calm - N/A   Overcast
11:54 PM 68.4 °F 68.4 °F 100% 30.09 in 3.0 mi West 4.6 mph - N/A   Overcast